#datetime,building,power
2023-01-29T00:00:00,pth,3.60
2023-01-29T00:01:00,pth,2.40
2023-01-29T00:03:00,pth,3.60
2023-01-29T00:04:00,pth,2.40
2023-01-29T00:06:00,pth,2.40
2023-01-29T00:08:00,pth,1.20
2023-01-29T00:09:00,pth,1.19
2023-01-29T00:10:00,pth,1.20
2023-01-29T00:12:00,pth,2.40
2023-01-29T00:14:00,pth,2.40
2023-01-29T00:16:00,pth,1.20
2023-01-29T00:17:00,pth,2.40
2023-01-29T00:19:00,pth,3.60
2023-01-29T00:21:00,pth,3.60
2023-01-29T00:23:00,pth,4.80
2023-01-29T00:25:00,pth,3.60
2023-01-29T00:26:00,pth,1.20
2023-01-29T00:27:00,pth,2.40
2023-01-29T00:29:00,pth,2.40
2023-01-29T00:31:00,pth,2.40
2023-01-29T00:33:00,pth,2.40
2023-01-29T00:35:00,pth,1.20
2023-01-29T00:37:00,pth,2.40
2023-01-29T00:39:00,pth,4.80
2023-01-29T00:41:00,pth,7.20
2023-01-29T00:43:00,pth,8.39
2023-01-29T00:44:00,pth,4.80
2023-01-29T00:46:00,pth,8.40
2023-01-29T00:48:00,pth,4.80
2023-01-29T00:50:00,pth,3.60
2023-01-29T00:52:00,pth,4.80
2023-01-29T00:54:00,pth,2.40
2023-01-29T00:55:00,pth,1.19
2023-01-29T00:57:00,pth,2.40
2023-01-29T01:00:00,pth,2.40
2023-01-29T01:01:00,pth,1.20
2023-01-29T01:03:00,pth,2.40
2023-01-29T01:05:00,pth,3.60
2023-01-29T01:07:00,pth,3.60
2023-01-29T01:08:00,pth,2.40
2023-01-29T01:10:00,pth,3.60
2023-01-29T01:11:00,pth,2.40
2023-01-29T01:13:00,pth,3.60
2023-01-29T01:14:00,pth,2.40
2023-01-29T01:15:00,pth,1.20
2023-01-29T01:17:00,pth,3.60
2023-01-29T01:19:00,pth,2.40
2023-01-29T01:21:00,pth,2.40
2023-01-29T01:22:00,pth,1.20
2023-01-29T01:23:00,pth,1.20
2023-01-29T01:25:00,pth,1.20
2023-01-29T01:27:00,pth,2.40
2023-01-29T01:29:00,pth,2.40
2023-01-29T01:30:00,pth,2.40
2023-01-29T01:31:00,pth,1.20
2023-01-29T01:33:00,pth,3.60
2023-01-29T01:35:00,pth,3.60
2023-01-29T01:37:00,pth,4.80
2023-01-29T01:38:00,pth,1.20
2023-01-29T01:40:00,pth,3.60
2023-01-29T01:41:00,pth,2.40
2023-01-29T01:42:00,pth,1.20
2023-01-29T01:44:00,pth,1.20
2023-01-29T01:46:00,pth,2.40
2023-01-29T01:48:00,pth,1.20
2023-01-29T01:50:00,pth,2.40
2023-01-29T01:52:00,pth,1.20
2023-01-29T01:54:00,pth,3.60
2023-01-29T01:56:00,pth,3.60
2023-01-29T01:58:00,pth,3.60
2023-01-29T02:00:00,pth,3.60
2023-01-29T02:01:00,pth,1.20
2023-01-29T02:03:00,pth,3.60
2023-01-29T02:05:00,pth,3.60
2023-01-29T02:06:00,pth,1.20
2023-01-29T02:08:00,pth,2.40
2023-01-29T02:09:00,pth,1.20
2023-01-29T02:10:00,pth,1.20
2023-01-29T02:12:00,pth,1.20
2023-01-29T02:13:00,pth,1.20
2023-01-29T02:15:00,pth,2.40
2023-01-29T02:17:00,pth,1.20
2023-01-29T02:18:00,pth,1.20
2023-01-29T02:20:00,pth,4.80
2023-01-29T02:22:00,pth,3.60
2023-01-29T02:23:00,pth,1.20
2023-01-29T02:25:00,pth,4.80
2023-01-29T02:26:00,pth,1.20
2023-01-29T02:28:00,pth,4.80
2023-01-29T02:30:00,pth,3.60
2023-01-29T02:32:00,pth,3.60
2023-01-29T02:34:00,pth,1.20
2023-01-29T02:35:00,pth,1.20
2023-01-29T02:37:00,pth,2.40
2023-01-29T02:39:00,pth,1.19
2023-01-29T02:40:00,pth,1.20
2023-01-29T02:42:00,pth,2.40
2023-01-29T02:44:00,pth,2.40
2023-01-29T02:46:00,pth,3.60
2023-01-29T02:48:00,pth,4.80
2023-01-29T02:50:00,pth,3.60
2023-01-29T02:52:00,pth,3.60
2023-01-29T02:54:00,pth,4.80
2023-01-29T02:55:00,pth,1.20
2023-01-29T02:57:00,pth,2.40
2023-01-29T02:59:00,pth,2.40
2023-01-29T03:01:00,pth,1.20
2023-01-29T03:02:00,pth,1.20
2023-01-29T03:04:00,pth,2.40
2023-01-29T03:06:00,pth,1.19
2023-01-29T03:08:00,pth,2.40
2023-01-29T03:09:00,pth,2.40
2023-01-29T03:11:00,pth,3.60
2023-01-29T03:13:00,pth,4.80
2023-01-29T03:15:00,pth,3.60
2023-01-29T03:17:00,pth,3.60
2023-01-29T03:18:00,pth,2.40
2023-01-29T03:20:00,pth,3.60
2023-01-29T03:21:00,pth,1.20
2023-01-29T03:22:00,pth,1.20
2023-01-29T03:24:00,pth,1.19
2023-01-29T03:26:00,pth,2.40
2023-01-29T03:28:00,pth,1.20
2023-01-29T03:30:00,pth,2.40
2023-01-29T03:33:00,pth,2.40
2023-01-29T03:34:00,pth,2.40
2023-01-29T03:36:00,pth,3.60
2023-01-29T03:38:00,pth,3.60
2023-01-29T03:39:00,pth,1.20
2023-01-29T03:41:00,pth,3.60
2023-01-29T03:43:00,pth,4.80
2023-01-29T03:44:00,pth,1.20
2023-01-29T03:46:00,pth,3.60
2023-01-29T03:47:00,pth,1.20
2023-01-29T03:49:00,pth,1.20
2023-01-29T03:51:00,pth,2.40
2023-01-29T03:52:00,pth,1.20
2023-01-29T03:54:00,pth,2.40
2023-01-29T03:56:00,pth,1.20
2023-01-29T03:58:00,pth,2.40
2023-01-29T04:00:00,pth,3.60
2023-01-29T04:01:00,pth,1.20
2023-01-29T04:03:00,pth,4.80
2023-01-29T04:05:00,pth,3.60
2023-01-29T04:06:00,pth,1.20
2023-01-29T04:07:00,pth,2.40
2023-01-29T04:09:00,pth,3.60
2023-01-29T04:11:00,pth,3.60
2023-01-29T04:13:00,pth,2.40
2023-01-29T04:15:00,pth,1.20
2023-01-29T04:16:00,pth,1.20
2023-01-29T04:18:00,pth,1.19
2023-01-29T04:20:00,pth,2.40
2023-01-29T04:22:00,pth,1.20
2023-01-29T04:24:00,pth,3.60
2023-01-29T04:26:00,pth,4.80
2023-01-29T04:28:00,pth,3.60
2023-01-29T04:30:00,pth,4.80
2023-01-29T04:31:00,pth,1.20
2023-01-29T04:32:00,pth,2.40
2023-01-29T04:34:00,pth,3.60
2023-01-29T04:35:00,pth,2.40
2023-01-29T04:37:00,pth,3.60
2023-01-29T04:40:00,pth,2.40
2023-01-29T04:42:00,pth,2.40
2023-01-29T04:44:00,pth,1.20
2023-01-29T04:46:00,pth,2.40
2023-01-29T04:48:00,pth,2.40
2023-01-29T04:49:00,pth,1.19
2023-01-29T04:51:00,pth,4.80
2023-01-29T04:52:00,pth,2.40
2023-01-29T04:54:00,pth,3.60
2023-01-29T04:55:00,pth,1.20
2023-01-29T04:56:00,pth,2.40
2023-01-29T04:58:00,pth,3.60
2023-01-29T05:00:00,pth,4.80
2023-01-29T05:01:00,pth,1.20
2023-01-29T05:03:00,pth,3.60
2023-01-29T05:04:00,pth,1.20
2023-01-29T05:06:00,pth,2.40
2023-01-29T05:08:00,pth,1.20
2023-01-29T05:10:00,pth,2.40
2023-01-29T05:12:00,pth,1.20
2023-01-29T05:14:00,pth,3.60
2023-01-29T05:15:00,pth,2.40
2023-01-29T05:16:00,pth,1.20
2023-01-29T05:17:00,pth,2.40
2023-01-29T05:19:00,pth,3.60
2023-01-29T05:20:00,pth,2.40
2023-01-29T05:22:00,pth,3.60
2023-01-29T05:24:00,pth,3.60
2023-01-29T05:26:00,pth,3.60
2023-01-29T05:27:00,pth,2.40
2023-01-29T05:29:00,pth,2.40
2023-01-29T05:31:00,pth,1.20
2023-01-29T05:32:00,pth,1.20
2023-01-29T05:34:00,pth,2.40
2023-01-29T05:36:00,pth,1.20
2023-01-29T05:38:00,pth,2.40
2023-01-29T05:40:00,pth,2.40
2023-01-29T05:41:00,pth,2.40
2023-01-29T05:43:00,pth,3.60
2023-01-29T05:44:00,pth,1.20
2023-01-29T05:46:00,pth,3.60
2023-01-29T05:47:00,pth,2.40
2023-01-29T05:48:00,pth,2.40
2023-01-29T05:50:00,pth,3.60
2023-01-29T05:51:00,pth,1.20
2023-01-29T05:52:00,pth,2.40
2023-01-29T05:53:00,pth,1.20
2023-01-29T05:55:00,pth,1.20
2023-01-29T05:56:00,pth,1.19
2023-01-29T05:58:00,pth,1.20
2023-01-29T06:00:00,pth,2.40
2023-01-29T06:01:00,pth,1.20
2023-01-29T06:03:00,pth,1.20
2023-01-29T06:05:00,pth,3.60
2023-01-29T06:07:00,pth,3.60
2023-01-29T06:09:00,pth,3.60
2023-01-29T06:10:00,pth,2.40
2023-01-29T06:12:00,pth,3.60
2023-01-29T06:13:00,pth,1.20
2023-01-29T06:15:00,pth,3.60
2023-01-29T06:17:00,pth,3.60
2023-01-29T06:18:00,pth,2.40
2023-01-29T06:20:00,pth,1.20
2023-01-29T06:21:00,pth,1.20
2023-01-29T06:24:00,pth,2.40
2023-01-29T06:25:00,pth,1.20
2023-01-29T06:27:00,pth,1.20
2023-01-29T06:29:00,pth,1.20
2023-01-29T06:30:00,pth,1.20
2023-01-29T06:32:00,pth,3.60
2023-01-29T06:33:00,pth,2.40
2023-01-29T06:35:00,pth,3.60
2023-01-29T06:37:00,pth,3.60
2023-01-29T06:39:00,pth,3.60
2023-01-29T06:40:00,pth,1.20
2023-01-29T06:42:00,pth,4.80
2023-01-29T06:44:00,pth,3.60
2023-01-29T06:45:00,pth,1.20
2023-01-29T06:47:00,pth,1.20
2023-01-29T06:49:00,pth,1.20
2023-01-29T06:50:00,pth,1.20
2023-01-29T06:52:00,pth,1.19
2023-01-29T06:54:00,pth,2.40
2023-01-29T06:57:00,pth,3.60
2023-01-29T06:58:00,pth,1.19
2023-01-29T07:00:00,pth,3.60
2023-01-29T07:01:00,pth,2.40
2023-01-29T07:03:00,pth,3.60
2023-01-29T07:04:00,pth,1.20
2023-01-29T07:05:00,pth,2.40
2023-01-29T07:07:00,pth,3.60
2023-01-29T07:09:00,pth,3.60
2023-01-29T07:10:00,pth,2.40
2023-01-29T07:12:00,pth,2.40
2023-01-29T07:14:00,pth,1.20
2023-01-29T07:16:00,pth,2.40
2023-01-29T07:17:00,pth,1.19
2023-01-29T07:19:00,pth,1.20
2023-01-29T07:21:00,pth,2.40
2023-01-29T07:23:00,pth,3.60
2023-01-29T07:24:00,pth,2.40
2023-01-29T07:26:00,pth,3.60
2023-01-29T07:28:00,pth,2.40
2023-01-29T07:30:00,pth,3.60
2023-01-29T07:32:00,pth,3.60
2023-01-29T07:33:00,pth,2.40
2023-01-29T07:34:00,pth,1.20
2023-01-29T07:36:00,pth,3.60
2023-01-29T07:38:00,pth,1.20
2023-01-29T07:40:00,pth,1.20
2023-01-29T07:42:00,pth,1.20
2023-01-29T07:44:00,pth,2.40
2023-01-29T07:47:00,pth,2.40
2023-01-29T07:49:00,pth,3.60
2023-01-29T07:51:00,pth,2.40
2023-01-29T07:52:00,pth,2.40
2023-01-29T07:54:00,pth,2.40
2023-01-29T07:56:00,pth,3.60
2023-01-29T07:58:00,pth,3.60
2023-01-29T08:00:00,pth,3.60
2023-01-29T08:03:00,pth,2.40
2023-01-29T08:05:00,pth,1.20
2023-01-29T08:07:00,pth,1.20
2023-01-29T08:09:00,pth,2.40
2023-01-29T08:11:00,pth,1.20
2023-01-29T08:12:00,pth,2.40
2023-01-29T08:13:00,pth,1.20
2023-01-29T08:14:00,pth,2.40
2023-01-29T08:16:00,pth,3.60
2023-01-29T08:18:00,pth,3.60
2023-01-29T08:19:00,pth,2.40
2023-01-29T08:21:00,pth,3.60
2023-01-29T08:23:00,pth,2.40
2023-01-29T08:24:00,pth,2.40
2023-01-29T08:26:00,pth,1.20
2023-01-29T08:28:00,pth,1.20
2023-01-29T08:30:00,pth,1.20
2023-01-29T08:31:00,pth,1.19
2023-01-29T08:33:00,pth,1.20
2023-01-29T08:36:00,pth,2.40
2023-01-29T08:37:00,pth,1.20
2023-01-29T08:39:00,pth,2.40
2023-01-29T08:40:00,pth,2.40
2023-01-29T08:41:00,pth,1.20
2023-01-29T08:43:00,pth,3.60
2023-01-29T08:45:00,pth,3.60
2023-01-29T08:47:00,pth,2.40
2023-01-29T08:48:00,pth,2.40
2023-01-29T08:50:00,pth,3.60
2023-01-29T08:52:00,pth,1.20
2023-01-29T08:53:00,pth,1.20
2023-01-29T08:55:00,pth,1.19
2023-01-29T08:57:00,pth,1.20
2023-01-29T08:59:00,pth,1.20
2023-01-29T09:01:00,pth,1.20
2023-01-29T09:03:00,pth,2.40
2023-01-29T09:05:00,pth,2.40
2023-01-29T09:07:00,pth,2.40
2023-01-29T09:08:00,pth,2.40
2023-01-29T09:10:00,pth,2.40
2023-01-29T09:12:00,pth,3.60
2023-01-29T09:14:00,pth,2.40
2023-01-29T09:15:00,pth,1.19
2023-01-29T09:17:00,pth,2.40
2023-01-29T09:18:00,pth,1.20
2023-01-29T09:21:00,pth,1.20
2023-01-29T09:23:00,pth,1.20
2023-01-29T09:25:00,pth,1.19
2023-01-29T09:26:00,pth,1.20
2023-01-29T09:28:00,pth,1.20
2023-01-29T09:30:00,pth,3.60
2023-01-29T09:32:00,pth,3.60
2023-01-29T09:34:00,pth,3.60
2023-01-29T09:35:00,pth,1.20
2023-01-29T09:37:00,pth,3.60
2023-01-29T09:39:00,pth,3.60
2023-01-29T09:40:00,pth,2.40
2023-01-29T09:41:00,pth,1.20
2023-01-29T09:43:00,pth,1.20
2023-01-29T09:44:00,pth,1.20
2023-01-29T09:46:00,pth,1.20
2023-01-29T09:48:00,pth,1.19
2023-01-29T09:50:00,pth,2.40
2023-01-29T09:52:00,pth,1.20
2023-01-29T09:54:00,pth,2.40
2023-01-29T09:56:00,pth,3.60
2023-01-29T09:57:00,pth,2.40
2023-01-29T09:59:00,pth,3.60
2023-01-29T10:01:00,pth,3.60
2023-01-29T10:03:00,pth,3.60
2023-01-29T10:04:00,pth,2.40
2023-01-29T10:06:00,pth,2.40
2023-01-29T10:08:00,pth,3.60
2023-01-29T10:10:00,pth,1.20
2023-01-29T10:12:00,pth,2.40
2023-01-29T10:15:00,pth,1.20
2023-01-29T10:16:00,pth,1.19
2023-01-29T10:17:00,pth,1.20
2023-01-29T10:19:00,pth,1.20
2023-01-29T10:21:00,pth,3.60
2023-01-29T10:22:00,pth,1.20
2023-01-29T10:24:00,pth,3.60
2023-01-29T10:25:00,pth,2.40
2023-01-29T10:27:00,pth,3.60
2023-01-29T10:29:00,pth,3.60
2023-01-29T10:31:00,pth,2.40
2023-01-29T10:32:00,pth,2.40
2023-01-29T10:33:00,pth,1.20
2023-01-29T10:35:00,pth,1.20
2023-01-29T10:37:00,pth,1.20
2023-01-29T10:39:00,pth,1.19
2023-01-29T10:40:00,pth,1.20
2023-01-29T10:42:00,pth,1.20
2023-01-29T10:43:00,pth,1.20
2023-01-29T10:45:00,pth,1.20
2023-01-29T10:47:00,pth,3.60
2023-01-29T10:49:00,pth,3.60
2023-01-29T10:50:00,pth,2.40
2023-01-29T10:52:00,pth,3.60
2023-01-29T10:53:00,pth,2.40
2023-01-29T10:55:00,pth,3.60
2023-01-29T10:56:00,pth,2.40
2023-01-29T10:58:00,pth,3.60
2023-01-29T11:00:00,pth,2.40
2023-01-29T11:01:00,pth,1.20
2023-01-29T11:03:00,pth,1.20
2023-01-29T11:04:00,pth,1.20
2023-01-29T11:07:00,pth,1.20
2023-01-29T11:08:00,pth,1.19
2023-01-29T11:09:00,pth,1.20
2023-01-29T11:11:00,pth,2.40
2023-01-29T11:13:00,pth,2.40
2023-01-29T11:15:00,pth,3.60
2023-01-29T11:16:00,pth,1.20
2023-01-29T11:17:00,pth,1.20
2023-01-29T11:19:00,pth,3.60
2023-01-29T11:20:00,pth,2.40
2023-01-29T11:21:00,pth,1.20
2023-01-29T11:23:00,pth,3.60
2023-01-29T11:25:00,pth,3.60
2023-01-29T11:26:00,pth,1.20
2023-01-29T11:28:00,pth,2.40
2023-01-29T11:30:00,pth,1.20
2023-01-29T11:31:00,pth,1.20
2023-01-29T11:33:00,pth,1.20
2023-01-29T11:35:00,pth,1.20
2023-01-29T11:36:00,pth,1.20
2023-01-29T11:38:00,pth,1.19
2023-01-29T11:40:00,pth,3.60
2023-01-29T11:42:00,pth,3.60
2023-01-29T11:44:00,pth,3.60
2023-01-29T11:46:00,pth,2.40
2023-01-29T11:48:00,pth,3.60
2023-01-29T11:50:00,pth,3.60
2023-01-29T11:51:00,pth,1.20
2023-01-29T11:52:00,pth,1.19
2023-01-29T11:54:00,pth,1.20
2023-01-29T11:56:00,pth,1.20
2023-01-29T11:57:00,pth,1.20
2023-01-29T11:59:00,pth,1.20
2023-01-29T12:00:00,pth,1.20
2023-01-29T12:01:00,pth,1.19
2023-01-29T12:03:00,pth,1.20
2023-01-29T12:04:00,pth,1.20
2023-01-29T12:05:00,pth,1.20
2023-01-29T12:07:00,pth,3.60
2023-01-29T12:09:00,pth,3.60
2023-01-29T12:11:00,pth,3.60
2023-01-29T12:13:00,pth,3.60
2023-01-29T12:14:00,pth,1.20
2023-01-29T12:15:00,pth,2.40
2023-01-29T12:17:00,pth,3.60
2023-01-29T12:19:00,pth,1.20
2023-01-29T12:21:00,pth,2.40
2023-01-29T12:23:00,pth,1.19
2023-01-29T12:25:00,pth,2.40
2023-01-29T12:27:00,pth,1.20
2023-01-29T12:29:00,pth,2.40
2023-01-29T12:30:00,pth,1.19
2023-01-29T12:32:00,pth,3.60
2023-01-29T12:34:00,pth,3.60
2023-01-29T12:35:00,pth,1.20
2023-01-29T12:37:00,pth,3.60
2023-01-29T12:39:00,pth,3.60
2023-01-29T12:41:00,pth,3.60
2023-01-29T12:43:00,pth,2.40
2023-01-29T12:45:00,pth,1.19
2023-01-29T12:46:00,pth,1.20
2023-01-29T12:48:00,pth,1.20
2023-01-29T12:50:00,pth,1.20
2023-01-29T12:52:00,pth,1.20
2023-01-29T12:54:00,pth,2.40
2023-01-29T12:56:00,pth,2.40
2023-01-29T12:58:00,pth,3.60
2023-01-29T13:00:00,pth,3.60
2023-01-29T13:01:00,pth,1.20
2023-01-29T13:03:00,pth,3.60
2023-01-29T13:04:00,pth,1.19
2023-01-29T13:05:00,pth,2.40
2023-01-29T13:06:00,pth,1.20
2023-01-29T13:07:00,pth,1.20
2023-01-29T13:09:00,pth,1.20
2023-01-29T13:11:00,pth,1.19
2023-01-29T13:12:00,pth,1.20
2023-01-29T13:14:00,pth,1.20
2023-01-29T13:15:00,pth,1.20
2023-01-29T13:18:00,pth,1.20
2023-01-29T13:20:00,pth,3.60
2023-01-29T13:21:00,pth,1.20
2023-01-29T13:22:00,pth,2.40
2023-01-29T13:24:00,pth,2.40
2023-01-29T13:26:00,pth,3.60
2023-01-29T13:27:00,pth,1.20
2023-01-29T13:29:00,pth,3.60
2023-01-29T13:31:00,pth,1.20
2023-01-29T13:33:00,pth,1.20
2023-01-29T13:36:00,pth,1.20
2023-01-29T13:38:00,pth,1.20
2023-01-29T13:39:00,pth,1.20
2023-01-29T13:41:00,pth,1.19
2023-01-29T13:43:00,pth,1.20
2023-01-29T13:44:00,pth,1.20
2023-01-29T13:46:00,pth,3.60
2023-01-29T13:48:00,pth,4.80
2023-01-29T13:50:00,pth,3.60
2023-01-29T13:52:00,pth,3.60
2023-01-29T13:54:00,pth,3.60
2023-01-29T13:56:00,pth,2.40
2023-01-29T13:58:00,pth,2.40
2023-01-29T14:00:00,pth,3.60
2023-01-29T14:03:00,pth,3.60
2023-01-29T14:05:00,pth,1.20
2023-01-29T14:06:00,pth,1.20
2023-01-29T14:08:00,pth,2.40
2023-01-29T14:09:00,pth,1.20
2023-01-29T14:11:00,pth,2.40
2023-01-29T14:13:00,pth,3.60
2023-01-29T14:15:00,pth,3.60
2023-01-29T14:17:00,pth,3.60
2023-01-29T14:19:00,pth,3.60
2023-01-29T14:21:00,pth,3.60
2023-01-29T14:23:00,pth,2.40
2023-01-29T14:24:00,pth,1.20
2023-01-29T14:26:00,pth,2.40
2023-01-29T14:28:00,pth,1.19
2023-01-29T14:30:00,pth,2.40
2023-01-29T14:32:00,pth,1.20
2023-01-29T14:33:00,pth,1.20
2023-01-29T14:35:00,pth,2.40
2023-01-29T14:36:00,pth,1.20
2023-01-29T14:38:00,pth,2.40
2023-01-29T14:40:00,pth,3.60
2023-01-29T14:42:00,pth,4.80
2023-01-29T14:44:00,pth,3.60
2023-01-29T14:45:00,pth,2.40
2023-01-29T14:47:00,pth,3.60
2023-01-29T14:48:00,pth,2.40
2023-01-29T14:50:00,pth,2.40
2023-01-29T14:52:00,pth,2.40
2023-01-29T14:54:00,pth,1.19
2023-01-29T14:56:00,pth,1.20
2023-01-29T14:58:00,pth,1.20
2023-01-29T14:59:00,pth,1.20
2023-01-29T15:01:00,pth,1.20
2023-01-29T15:03:00,pth,2.40
2023-01-29T15:06:00,pth,3.60
2023-01-29T15:07:00,pth,1.20
2023-01-29T15:09:00,pth,3.60
2023-01-29T15:11:00,pth,3.60
2023-01-29T15:12:00,pth,2.40
2023-01-29T15:14:00,pth,2.40
2023-01-29T15:16:00,pth,2.40
2023-01-29T15:18:00,pth,1.20
2023-01-29T15:20:00,pth,2.40
2023-01-29T15:22:00,pth,1.20
2023-01-29T15:25:00,pth,1.20
2023-01-29T15:27:00,pth,2.40
2023-01-29T15:30:00,pth,1.20
2023-01-29T15:32:00,pth,3.60
2023-01-29T15:34:00,pth,2.40
2023-01-29T15:36:00,pth,3.60
2023-01-29T15:38:00,pth,3.60
2023-01-29T15:39:00,pth,1.20
2023-01-29T15:41:00,pth,3.60
2023-01-29T15:42:00,pth,1.20
2023-01-29T15:44:00,pth,1.20
2023-01-29T15:46:00,pth,2.40
2023-01-29T15:48:00,pth,2.40
2023-01-29T15:51:00,pth,2.40
2023-01-29T15:53:00,pth,1.20
2023-01-29T15:54:00,pth,1.20
2023-01-29T15:57:00,pth,1.20
2023-01-29T15:58:00,pth,2.40
2023-01-29T16:00:00,pth,3.60
2023-01-29T16:01:00,pth,1.20
2023-01-29T16:03:00,pth,3.60
2023-01-29T16:05:00,pth,3.60
2023-01-29T16:07:00,pth,3.60
2023-01-29T16:09:00,pth,2.40
2023-01-29T16:10:00,pth,1.20
2023-01-29T16:12:00,pth,1.19
2023-01-29T16:14:00,pth,2.40
2023-01-29T16:16:00,pth,1.20
2023-01-29T16:18:00,pth,1.20
2023-01-29T16:20:00,pth,2.40
2023-01-29T16:23:00,pth,2.40
2023-01-29T16:25:00,pth,2.40
2023-01-29T16:27:00,pth,3.60
2023-01-29T16:29:00,pth,3.60
2023-01-29T16:31:00,pth,3.60
2023-01-29T16:32:00,pth,1.20
2023-01-29T16:34:00,pth,3.60
2023-01-29T16:35:00,pth,1.20
2023-01-29T16:37:00,pth,2.40
2023-01-29T16:40:00,pth,2.40
2023-01-29T16:41:00,pth,1.20
2023-01-29T16:43:00,pth,1.20
2023-01-29T16:45:00,pth,1.20
2023-01-29T16:47:00,pth,2.40
2023-01-29T16:49:00,pth,1.20
2023-01-29T16:51:00,pth,1.20
2023-01-29T16:53:00,pth,4.80
2023-01-29T16:55:00,pth,3.60
2023-01-29T16:56:00,pth,2.40
2023-01-29T16:57:00,pth,1.20
2023-01-29T16:58:00,pth,2.40
2023-01-29T17:00:00,pth,3.60
2023-01-29T17:01:00,pth,1.20
2023-01-29T17:03:00,pth,3.60
2023-01-29T17:06:00,pth,2.40
2023-01-29T17:07:00,pth,1.19
2023-01-29T17:08:00,pth,1.20
2023-01-29T17:10:00,pth,2.40
2023-01-29T17:11:00,pth,1.20
2023-01-29T17:13:00,pth,2.40
2023-01-29T17:14:00,pth,1.20
2023-01-29T17:15:00,pth,1.20
2023-01-29T17:17:00,pth,2.40
2023-01-29T17:18:00,pth,1.20
2023-01-29T17:20:00,pth,4.80
2023-01-29T17:22:00,pth,3.60
2023-01-29T17:24:00,pth,3.60
2023-01-29T17:25:00,pth,2.40
2023-01-29T17:26:00,pth,2.40
2023-01-29T17:28:00,pth,3.60
2023-01-29T17:29:00,pth,1.20
2023-01-29T17:31:00,pth,2.40
2023-01-29T17:33:00,pth,2.40
2023-01-29T17:34:00,pth,1.20
2023-01-29T17:35:00,pth,1.20
2023-01-29T17:37:00,pth,2.40
2023-01-29T17:39:00,pth,2.40
2023-01-29T17:40:00,pth,1.20
2023-01-29T17:42:00,pth,2.40
2023-01-29T17:44:00,pth,2.40
2023-01-29T17:45:00,pth,1.20
2023-01-29T17:47:00,pth,3.60
2023-01-29T17:48:00,pth,2.40
2023-01-29T17:50:00,pth,3.60
2023-01-29T17:51:00,pth,1.20
2023-01-29T17:53:00,pth,3.60
2023-01-29T17:54:00,pth,2.40
2023-01-29T17:56:00,pth,2.40
2023-01-29T17:58:00,pth,1.19
2023-01-29T18:00:00,pth,2.40
2023-01-29T18:01:00,pth,1.20
2023-01-29T18:03:00,pth,1.20
2023-01-29T18:05:00,pth,2.40
2023-01-29T18:07:00,pth,2.40
2023-01-29T18:08:00,pth,1.20
2023-01-29T18:10:00,pth,2.40
2023-01-29T18:11:00,pth,2.40
2023-01-29T18:13:00,pth,3.60
2023-01-29T18:14:00,pth,1.20
2023-01-29T18:15:00,pth,2.40
2023-01-29T18:17:00,pth,3.60
2023-01-29T18:19:00,pth,3.60
2023-01-29T18:20:00,pth,2.40
2023-01-29T18:22:00,pth,2.40
2023-01-29T18:24:00,pth,2.40
2023-01-29T18:25:00,pth,1.20
2023-01-29T18:27:00,pth,2.40
2023-01-29T18:28:00,pth,1.20
2023-01-29T18:30:00,pth,2.40
2023-01-29T18:31:00,pth,1.19
2023-01-29T18:33:00,pth,2.40
2023-01-29T18:34:00,pth,2.40
2023-01-29T18:36:00,pth,4.80
2023-01-29T18:38:00,pth,8.40
2023-01-29T18:39:00,pth,4.80
2023-01-29T18:41:00,pth,4.80
2023-01-29T18:42:00,pth,2.40
2023-01-29T18:44:00,pth,6.01
2023-01-29T18:46:00,pth,3.60
2023-01-29T18:48:00,pth,3.60
2023-01-29T18:49:00,pth,1.19
2023-01-29T18:51:00,pth,2.40
2023-01-29T18:53:00,pth,2.40
2023-01-29T18:54:00,pth,2.40
2023-01-29T18:56:00,pth,2.40
2023-01-29T18:58:00,pth,2.40
2023-01-29T19:00:00,pth,2.40
2023-01-29T19:01:00,pth,1.19
2023-01-29T19:03:00,pth,4.80
2023-01-29T19:04:00,pth,2.40
2023-01-29T19:06:00,pth,4.80
2023-01-29T19:08:00,pth,3.60
2023-01-29T19:09:00,pth,3.60
2023-01-29T19:10:00,pth,2.40
2023-01-29T19:11:00,pth,4.80
2023-01-29T19:13:00,pth,3.60
2023-01-29T19:15:00,pth,2.40
2023-01-29T19:17:00,pth,3.60
2023-01-29T19:18:00,pth,1.20
2023-01-29T19:20:00,pth,2.40
2023-01-29T19:21:00,pth,1.19
2023-01-29T19:22:00,pth,1.20
2023-01-29T19:24:00,pth,2.40
2023-01-29T19:25:00,pth,2.40
2023-01-29T19:27:00,pth,2.40
2023-01-29T19:28:00,pth,1.20
2023-01-29T19:30:00,pth,4.80
2023-01-29T19:32:00,pth,4.80
2023-01-29T19:33:00,pth,2.40
2023-01-29T19:35:00,pth,4.80
2023-01-29T19:37:00,pth,4.80
2023-01-29T19:39:00,pth,4.80
2023-01-29T19:41:00,pth,2.40
2023-01-29T19:42:00,pth,2.40
2023-01-29T19:44:00,pth,2.40
2023-01-29T19:45:00,pth,1.19
2023-01-29T19:47:00,pth,1.20
2023-01-29T19:49:00,pth,2.40
2023-01-29T19:51:00,pth,2.40
2023-01-29T19:53:00,pth,2.40
2023-01-29T19:55:00,pth,2.40
2023-01-29T19:56:00,pth,1.20
2023-01-29T19:57:00,pth,2.40
2023-01-29T19:59:00,pth,4.80
2023-01-29T20:00:00,pth,2.40
2023-01-29T20:01:00,pth,2.40
2023-01-29T20:03:00,pth,3.60
2023-01-29T20:04:00,pth,2.40
2023-01-29T20:06:00,pth,4.80
2023-01-29T20:08:00,pth,2.40
2023-01-29T20:09:00,pth,2.40
2023-01-29T20:11:00,pth,2.40
2023-01-29T20:12:00,pth,1.20
2023-01-29T20:14:00,pth,3.60
2023-01-29T20:15:00,pth,1.20
2023-01-29T20:17:00,pth,2.40
2023-01-29T20:19:00,pth,2.40
2023-01-29T20:21:00,pth,3.60
2023-01-29T20:22:00,pth,1.20
2023-01-29T20:24:00,pth,3.60
2023-01-29T20:26:00,pth,4.80
2023-01-29T20:28:00,pth,4.80
2023-01-29T20:30:00,pth,3.60
2023-01-29T20:32:00,pth,4.80
2023-01-29T20:33:00,pth,2.40
2023-01-29T20:35:00,pth,3.60
2023-01-29T20:36:00,pth,1.20
2023-01-29T20:38:00,pth,2.40
2023-01-29T20:40:00,pth,2.40
2023-01-29T20:42:00,pth,3.60
2023-01-29T20:44:00,pth,2.40
2023-01-29T20:46:00,pth,2.40
2023-01-29T20:48:00,pth,3.60
2023-01-29T20:49:00,pth,1.20
2023-01-29T20:51:00,pth,3.60
2023-01-29T20:53:00,pth,4.80
2023-01-29T20:54:00,pth,2.40
2023-01-29T20:56:00,pth,4.80
2023-01-29T20:58:00,pth,4.80
2023-01-29T21:00:00,pth,4.80
2023-01-29T21:01:00,pth,2.40
2023-01-29T21:03:00,pth,3.60
2023-01-29T21:05:00,pth,3.60
2023-01-29T21:06:00,pth,1.20
2023-01-29T21:08:00,pth,2.40
2023-01-29T21:09:00,pth,2.40
2023-01-29T21:10:00,pth,1.20
2023-01-29T21:12:00,pth,3.60
2023-01-29T21:14:00,pth,3.60
2023-01-29T21:16:00,pth,2.40
2023-01-29T21:17:00,pth,1.20
2023-01-29T21:18:00,pth,2.40
2023-01-29T21:19:00,pth,2.40
2023-01-29T21:20:00,pth,2.40
2023-01-29T21:22:00,pth,6.00
2023-01-29T21:24:00,pth,4.80
2023-01-29T21:26:00,pth,4.80
2023-01-29T21:28:00,pth,2.40
2023-01-29T21:29:00,pth,1.20
2023-01-29T21:31:00,pth,2.40
2023-01-29T21:32:00,pth,1.20
2023-01-29T21:34:00,pth,3.60
2023-01-29T21:36:00,pth,2.40
2023-01-29T21:37:00,pth,1.20
2023-01-29T21:39:00,pth,2.40
2023-01-29T21:41:00,pth,2.40
2023-01-29T21:43:00,pth,2.40
2023-01-29T21:44:00,pth,2.40
2023-01-29T21:46:00,pth,4.80
2023-01-29T21:47:00,pth,2.40
2023-01-29T21:49:00,pth,14.40
2023-01-29T21:51:00,pth,15.60
2023-01-29T21:52:00,pth,8.40
2023-01-29T21:54:00,pth,15.60
2023-01-29T21:55:00,pth,7.20
2023-01-29T21:57:00,pth,15.60
2023-01-29T21:58:00,pth,7.20
2023-01-29T21:59:00,pth,8.40
2023-01-29T22:01:00,pth,15.60
2023-01-29T22:03:00,pth,15.60
2023-01-29T22:05:00,pth,15.60
2023-01-29T22:06:00,pth,8.40
2023-01-29T22:08:00,pth,15.60
2023-01-29T22:09:00,pth,7.20
2023-01-29T22:11:00,pth,15.60
2023-01-29T22:13:00,pth,15.59
2023-01-29T22:14:00,pth,8.40
2023-01-29T22:15:00,pth,7.20
2023-01-29T22:17:00,pth,16.80
2023-01-29T22:18:00,pth,6.00
2023-01-29T22:20:00,pth,9.60
2023-01-29T22:22:00,pth,15.60
2023-01-29T22:24:00,pth,9.60
2023-01-29T22:25:00,pth,6.00
2023-01-29T22:27:00,pth,15.60
2023-01-29T22:28:00,pth,3.60
2023-01-29T22:30:00,pth,13.21
2023-01-29T22:32:00,pth,13.20
2023-01-29T22:33:00,pth,2.40
2023-01-29T22:34:00,pth,7.21
2023-01-29T22:36:00,pth,14.40
2023-01-29T22:38:00,pth,7.20
2023-01-29T22:40:00,pth,15.60
2023-01-29T22:42:00,pth,7.20
2023-01-29T22:44:00,pth,15.60
2023-01-29T22:46:00,pth,8.39
2023-01-29T22:48:00,pth,6.01
2023-01-29T22:50:00,pth,4.80
2023-01-29T22:51:00,pth,1.20
2023-01-29T22:53:00,pth,4.80
2023-01-29T22:55:00,pth,4.80
2023-01-29T22:56:00,pth,2.40
2023-01-29T22:57:00,pth,2.40
2023-01-29T22:59:00,pth,2.40
2023-01-29T23:01:00,pth,3.60
2023-01-29T23:03:00,pth,2.40
2023-01-29T23:04:00,pth,1.20
2023-01-29T23:06:00,pth,2.40
2023-01-29T23:07:00,pth,1.20
2023-01-29T23:09:00,pth,2.40
2023-01-29T23:11:00,pth,2.40
2023-01-29T23:13:00,pth,1.20
2023-01-29T23:14:00,pth,1.20
2023-01-29T23:16:00,pth,2.40
2023-01-29T23:18:00,pth,2.40
2023-01-29T23:20:00,pth,3.60
2023-01-29T23:21:00,pth,1.20
2023-01-29T23:23:00,pth,4.80